Flag for Sweden

Past Weather in 59°51'29"N, 17°38'40"E, Sweden — Yesterday and Last 2 Weeks

Currently: 37 °F. Low clouds. (Weather station: Stockholm / Arlanda, Sweden). See more current weather

Past Weather in 59°51'29"N, 17°38'40"E — Graph

°F

59°51'29"N, 17°38'40"E Temperature Yesterday

Maximum temperature yesterday: 41 °F (at 10:50 am)
Minimum temperature yesterday: 34 °F (at 6:20 am)
Average temperature yesterday: 37 °F

High & Low Weather Summary for the Past Weeks

 TemperatureHumidityPressure
High43 °F (Feb 23, 11:50 am)100% (Feb 15, 8:20 am)30.39 "Hg (Feb 15, 8:20 am)
Low19 °F (Feb 18, 6:20 am)60% (Feb 18, 1:20 pm)28.97 "Hg (Feb 23, 7:50 am)
Average34 °F91%29.80 "Hg
* Reported Feb 15 8:20 am — Mar 1 8:20 am, 59°51'29"N, 17°38'40"E. Weather by CustomWeather, © 2024

Note: Actual official high and low records may vary slightly from our data, if they occured in-between our weather recording intervals... More about our weather records

59°51'29"N, 17°38'40"E Weather History for the Previous 24 Hours

Scroll right to see more
 ConditionsComfort  
Time TempWeatherWind HumidityBarometerVisibility
8:20 am
Fri, Mar 1
36 °FLow clouds.12 mph100%29.95 "Hg6 mi
7:50 am36 °FLow clouds.10 mph93%29.95 "Hg6 mi
7:20 am36 °FPartly sunny.12 mph93%29.92 "Hg6 mi
6:50 am36 °FPartly sunny.12 mph93%29.92 "Hg5 mi
6:20 am34 °FLow clouds.12 mph93%29.92 "Hg6 mi
5:50 am34 °FPassing clouds.10 mph93%29.92 "Hg6 mi
5:20 am34 °FPassing clouds.12 mph93%29.92 "HgN/A
4:50 am34 °FPassing clouds.13 mph93%29.92 "HgN/A
4:20 am32 °FPassing clouds.12 mph100%29.92 "Hg6 mi
3:50 am34 °FPassing clouds.10 mph93%29.92 "HgN/A
3:20 am34 °FClear.9 mph87%29.92 "Hg10 mi
2:50 am34 °FClear.12 mph87%29.92 "Hg10 mi
2:20 am34 °FClear.12 mph87%29.92 "Hg10 mi
1:50 am32 °FClear.13 mph93%29.92 "Hg10 mi
1:20 am34 °FClear.13 mph87%29.92 "Hg10 mi
12:50 am34 °FClear.13 mph87%29.92 "Hg10 mi
12:20 am34 °FClear.14 mph87%29.92 "Hg10 mi
11:50 pm
Thu, Feb 29
34 °FPassing clouds.13 mph87%29.92 "HgN/A
11:20 pm34 °FPassing clouds.14 mph87%29.92 "HgN/A
10:50 pm34 °FPartly cloudy.15 mph87%29.92 "HgN/A
10:20 pm34 °FPartly cloudy.16 mph87%29.89 "HgN/A
9:50 pm36 °FPassing clouds.17 mph87%29.89 "HgN/A
9:20 pm36 °FPassing clouds.17 mph81%29.89 "HgN/A
8:50 pm36 °FMostly cloudy.20 mph81%29.89 "HgN/A
8:20 pm36 °FPassing clouds.17 mph81%29.89 "HgN/A
7:50 pm36 °FPassing clouds.21 mph81%29.89 "HgN/A
7:20 pm36 °FPassing clouds.17 mph81%29.89 "HgN/A
6:50 pm36 °FPassing clouds.20 mph87%29.89 "HgN/A
6:20 pm36 °FPartly cloudy.21 mph87%29.89 "HgN/A
5:50 pm36 °FPassing clouds.20 mph81%29.89 "HgN/A
5:20 pm36 °FPassing clouds.22 mph81%29.89 "HgN/A
4:50 pm37 °FSunny.24 mph75%29.89 "Hg10 mi
4:20 pm37 °FSunny.23 mph75%29.89 "Hg10 mi
3:20 pm41 °FSunny.29 mph66%29.89 "Hg10 mi
2:50 pm41 °FSunny.28 mph66%29.89 "Hg10 mi
2:20 pm39 °FSunny.25 mph70%29.89 "Hg10 mi
1:50 pm41 °FSunny.25 mph70%29.89 "Hg10 mi
1:20 pm39 °FSunny.23 mph70%29.89 "Hg10 mi
12:50 pm41 °FScattered clouds.23 mph66%29.92 "HgN/A
12:20 pm41 °FScattered clouds.22 mph66%29.92 "HgN/A
11:50 am41 °FScattered clouds.18 mph66%29.92 "HgN/A
11:20 am41 °FScattered clouds.18 mph70%29.92 "HgN/A
10:50 am41 °FPassing clouds.17 mph66%29.95 "HgN/A
10:20 am39 °FPassing clouds.16 mph75%29.95 "HgN/A
Weather by CustomWeather, © 2024

See weather overview